Location: Lafig�re
(44.4503°N, 4.0357°E)
Time: 15:34:07
(UTC+00:00)

Transit 2A Rocket - Pass Details

Date: 26 January 2021
Orbit: 594 x 908 km, 66.7° (Epoch: 06 March)

Event Time Altitude Azimuth Distance (km) Brightness Sun altitude
Rises 18:11:43 0° 339° (NNW) 2,951 8.2 -15.5°
Reaches altitude 10° 18:15:20 10° 8° (N) 1,988 7.0 -16.1°
Enters shadow 18:16:32 12° 23° (NNE) 1,827 6.6 -16.3°
Maximum altitude 18:17:20 13° 35° (NE) 1,788 - -16.5°
Drops below altitude 10° 18:19:19 10° 62° (ENE) 1,947 - -16.8°
Sets 18:22:46 0° 92° (E) 2,831 - -17.4°
